DW6801 Weather Reports


time (UTC)temp
C
wind
direction
speed
KPH
gust
KPH
rain 1hr
cm
rain 24hr
cm
rain mn
cm
humidity
%
barometer
mb
20260507221007 3 332 0.0 0.0 0.00 0.00 0.00 83 1020.3
20260507220510 3 332 0.0 0.0 0.00 0.00 0.00 85 1020.3
20260507220027 3 332 0.0 0.0 0.00 0.00 0.00 83 1020.3
20260507215511 3 332 0.0 0.0 0.00 0.00 0.00 83 1020.3
20260507215013 3 332 0.0 0.0 0.00 0.00 0.00 83 1020.2
20260507214524 3 332 0.0 0.0 0.00 0.00 0.00 83 1020.3
20260507214008 3 332 0.0 0.0 0.00 0.00 0.00 83 1020.2
20260507213515 4 332 0.0 0.0 0.00 0.00 0.00 83 1020.2
20260507213030 4 332 0.0 0.0 0.00 0.00 0.00 82 1020.2
20260507212511 4 332 0.0 0.0 0.00 0.00 0.00 81 1020.1
20260507212012 4 332 0.0 0.0 0.00 0.00 0.00 82 1020.1
20260507211521 4 332 0.0 0.0 0.00 0.00 0.00 81 1020.1
20260507211013 4 332 0.0 0.0 0.00 0.00 0.00 81 1020.1
20260507210507 4 332 0.0 0.0 0.00 0.00 0.00 82 1020.0
20260507210020 4 332 0.0 0.0 0.00 0.00 0.00 82 1020.0
20260507205507 4 332 0.0 3.2 0.00 0.00 0.00 82 1019.9
20260507205008 4 332 0.0 3.2 0.00 0.00 0.00 81 1019.8
20260507204512 5 332 1.6 1.6 0.00 0.00 0.00 80 1019.8
20260507204009 5 341 1.6 3.2 0.00 0.00 0.00 79 1019.7
20260507203515 5 352 0.0 3.2 0.00 0.00 0.00 78 1019.7
20260507203013 5 352 0.0 1.6 0.00 0.00 0.00 79 1019.7
20260507202507 5 352 1.6 1.6 0.00 0.00 0.00 79 1019.7
20260507202010 5 352 0.0 0.0 0.00 0.00 0.00 78 1019.6
20260507201528 5 352 0.0 0.0 0.00 0.00 0.00 78 1019.6
20260507201009 5 352 0.0 0.0 0.00 0.00 0.00 77 1019.6
20260507200507 5 352 0.0 0.0 0.00 0.00 0.00 76 1019.6
20260507200033 6 352 0.0 0.0 0.00 0.00 0.00 76 1019.6
20260507195504 6 352 0.0 0.0 0.00 0.00 0.00 76 1019.5
20260507195008 6 352 0.0 0.0 0.00 0.00 0.00 77 1019.5
20260507194520 6 352 0.0 1.6 0.00 0.00 0.00 76 1019.5
20260507194009 6 352 0.0 1.6 0.00 0.00 0.00 74 1019.3
20260507193505 6 352 0.0 1.6 0.00 0.00 0.00 74 1019.4
20260507193027 7 352 1.6 1.6 0.00 0.00 0.00 73 1019.3
20260507192509 7 5 0.0 0.0 0.00 0.00 0.00 71 1019.3
20260507192011 7 5 0.0 0.0 0.00 0.00 0.00 70 1019.3
20260507191520 8 5 0.0 0.0 0.00 0.00 0.00 70 1019.2
20260507191010 8 5 0.0 0.0 0.00 0.00 0.00 70 1019.2
20260507190512 8 5 0.0 0.0 0.00 0.00 0.00 69 1019.1
20260507190028 8 5 0.0 3.2 0.00 0.00 0.00 67 1019.1
20260507185508 9 5 0.0 3.2 0.00 0.00 0.00 68 1018.9
20260507185010 9 5 0.0 3.2 0.00 0.00 0.00 67 1018.9
20260507184536 9 5 0.0 4.8 0.00 0.00 0.00 65 1018.7
20260507184009 10 360 1.6 4.8 0.00 0.00 0.00 65 1018.8
20260507183509 10 360 3.2 4.8 0.00 0.00 0.00 64 1018.7
20260507183026 10 334 1.6 6.4 0.00 0.00 0.00 63 1018.8
20260507182505 10 12 3.2 6.4 0.00 0.00 0.00 62 1018.8
20260507182011 10 352 4.8 6.4 0.00 0.00 0.00 63 1018.6
20260507181524 10 344 1.6 8.0 0.00 0.00 0.00 62 1018.6
20260507181011 10 9 3.2 8.0 0.00 0.00 0.00 61 1018.6
20260507180511 11 13 3.2 8.0 0.00 0.00 0.00 59 1018.4
20260507180023 11 360 3.2 8.0 0.00 0.00 0.00 58 1018.4